Flag for U.S.A. Weather past 2 weeks in Des Moines, Iowa, U.S.A.

Now
21 °F

Passing clouds.


Feels Like: 16 °F
Forecast: 23 / 38 °F
Wind: 3 mph from Northeast

Location: Des Moines International Airport

Current Time: Jan 30, 2015 at 9:50:52 AM

Latest Report: Jan 30, 2015 at 8:54 AM


Visibility: 10 mi

Pressure: 30.60 "Hg

Humidity: 71%

Dew point: 13 °F

Location of Des MoinesLocation

Historic Weather in Des Moines — Graph

°F

Des Moines temperature yesterday

Maximum temperature yesterday: 37 °F (at 12:54 AM)
Minimum temperature yesterday: 25 °F (at 11:54 PM)
Average temperature yesterday: 34 °F

Past Weeks' High & Low Weather Summary

 TemperatureHumidityPressure
High56 °F (Jan 16, 2:54 PM)89% (Jan 15, 10:54 PM)30.60 "Hg (Jan 15, 10:54 PM)
Low18 °F (Jan 30, 6:54 AM)36% (Jan 16, 2:54 PM)29.55 "Hg (Jan 25, 2:01 AM)
Average36 °F70%30.03 "Hg
* Reported Jan 15 8:54 AM — Jan 30 8:54 AM, Des Moines, Weather by CustomWeather, © 2014

Note: Actual official high and low records may vary slightly from our data, if they occured in-between our weather recording intervals... More about our weather records

Advertising

Des Moines weather history for previous 24 hours

 ConditionsComfort  
Time TempWeatherWind HumidityBarometerVisibility
8:54 AM
Jan 30
21 °FPassing clouds.3 mph71%30.60 "Hg10 mi
7:54 AM19 °FSunny.3 mph74%30.58 "Hg10 mi
6:54 AM18 °FClear.3 mph77%30.59 "Hg10 mi
5:54 AM19 °FClear.No wind74%30.59 "Hg10 mi
4:54 AM19 °FClear.7 mph77%30.58 "Hg10 mi
3:54 AM20 °FClear.6 mph74%30.57 "Hg10 mi
2:54 AM21 °FPassing clouds.6 mph74%30.58 "Hg10 mi
1:54 AM22 °FPassing clouds.13 mph75%30.58 "Hg10 mi
12:54 AM24 °FPassing clouds.10 mph75%30.55 "Hg10 mi
11:54 PM
Jan 29
25 °FPassing clouds.10 mph75%30.56 "Hg10 mi
10:54 PM27 °FClear.13 mph72%30.54 "Hg10 mi
9:54 PM28 °FClear.14 mph69%30.53 "Hg10 mi
8:54 PM30 °FPassing clouds.13 mph66%30.51 "Hg10 mi
7:54 PM31 °FPassing clouds.15 mph64%30.50 "Hg10 mi
6:54 PM32 °FOvercast.14 mph64%30.48 "Hg10 mi
5:54 PM32 °FOvercast.21 mph64%30.45 "Hg10 mi
4:54 PM34 °FOvercast.20 mph59%30.42 "Hg10 mi
3:54 PM35 °FOvercast.18 mph59%30.38 "Hg10 mi
2:54 PM37 °FOvercast.22 mph60%30.35 "Hg10 mi
1:54 PM37 °FOvercast.23 mph62%30.32 "Hg10 mi
12:54 PM37 °FOvercast.17 mph62%30.32 "Hg10 mi
11:54 AM34 °FOvercast.17 mph70%30.31 "Hg10 mi
10:54 AM34 °FOvercast.17 mph76%30.29 "Hg10 mi
9:54 AM35 °FOvercast.15 mph72%30.24 "Hg10 mi
Weather by CustomWeather, © 2014

See weather overviewHow to use our weather pages